• In Germany
  • List of Countries
  • For 7 days
  • Water Temperature
  • Satellite Maps
  • Weather Map
  • Weather Widgets
  • user-avatar
    Login

    Hourly Weather Sevan

    Today, 17 August, Thursday

    Time Temperature Precipitation Wind Pressure Humidity
    00:00 +19°C° 0.6 mm 1 mps 642 mmHg 71%
    01:00 +19°C° 0.3 mm 1 mps 642 mmHg 73%
    02:00 +18°C° 0.3 mm 1 mps 642 mmHg 75%
    03:00 +16°C° 0 mm 1 mps 641 mmHg 80%
    04:00 +18°C° 0 mm 1 mps 641 mmHg 79%
    05:00 +18°C° 0 mm 1 mps 642 mmHg 78%
    06:00 +18°C° 0 mm 1 mps 642 mmHg 77%
    07:00 +20°C° 0.4 mm 1 mps 642 mmHg 71%
    08:00 +21°C° 0.4 mm 1 mps 642 mmHg 64%
    09:00 +23°C° 0 mm 2 mps 643 mmHg 54%
    10:00 +24°C° 0.2 mm 2 mps 643 mmHg 49%
    11:00 +26°C° 0.2 mm 2 mps 643 mmHg 44%
    12:00 +28°C° 0.2 mm 2 mps 644 mmHg 39%
    13:00 +28°C° 0.2 mm 2 mps 643 mmHg 38%
    14:00 +29°C° 0.2 mm 2 mps 643 mmHg 36%
    15:00 +27°C° 0 mm 2 mps 643 mmHg 42%
    16:00 +26°C° 0.6 mm 2 mps 643 mmHg 45%
    17:00 +26°C° 0.6 mm 2 mps 643 mmHg 48%
    18:00 +25°C° 0.6 mm 1 mps 642 mmHg 50%
    19:00 +23°C° 0.3 mm 2 mps 642 mmHg 58%
    20:00 +21°C° 0.3 mm 2 mps 642 mmHg 65%
    21:00 +19°C° 0.3 mm 2 mps 642 mmHg 72%
    22:00 +19°C° 0.1 mm 2 mps 642 mmHg 74%
    23:00 +18°C° 0.1 mm 2 mps 642 mmHg 76%

    Tomorrow, 18 August, Friday

    Time Temperature Precipitation Wind Pressure Humidity
    00:00 +18°C° 0.1 mm 2 mps 642 mmHg 78%
    01:00 +17°C° 0 mm 2 mps 641 mmHg 78%
    02:00 +17°C° 0 mm 2 mps 641 mmHg 79%
    03:00 +17°C° 0 mm 2 mps 641 mmHg 79%
    04:00 +17°C° 0 mm 2 mps 641 mmHg 78%
    05:00 +17°C° 0 mm 2 mps 642 mmHg 77%
    06:00 +18°C° 0 mm 1 mps 642 mmHg 76%
    07:00 +20°C° 0 mm 1 mps 642 mmHg 66%
    08:00 +23°C° 0 mm 1 mps 643 mmHg 57%
    09:00 +25°C° 0 mm 1 mps 644 mmHg 47%
    10:00 +26°C° 0 mm 1 mps 644 mmHg 43%
    11:00 +28°C° 0 mm 2 mps 644 mmHg 39%
    12:00 +29°C° 0 mm 2 mps 644 mmHg 35%
    13:00 +30°C° 0 mm 2 mps 644 mmHg 34%
    14:00 +30°C° 0 mm 2 mps 644 mmHg 32%
    15:00 +30°C° 0 mm 2 mps 644 mmHg 31%
    16:00 +29°C° 0.3 mm 2 mps 643 mmHg 36%
    17:00 +28°C° 0.3 mm 2 mps 643 mmHg 40%
    18:00 +27°C° 0.3 mm 2 mps 643 mmHg 45%
    19:00 +26°C° 0.2 mm 2 mps 643 mmHg 52%
    20:00 +24°C° 0.2 mm 3 mps 643 mmHg 59%
    21:00 +21°C° 0.2 mm 3 mps 643 mmHg 66%
    22:00 +20°C° 0 mm 3 mps 643 mmHg 67%
    23:00 +20°C° 0 mm 3 mps 643 mmHg 69%

    Day after tomorrow, 19 August, Saturday

    Time Temperature Precipitation Wind Pressure Humidity
    00:00 +19°C° 0 mm 2 mps 643 mmHg 70%
    01:00 +19°C° 0 mm 2 mps 643 mmHg 70%
    02:00 +18°C° 0 mm 2 mps 643 mmHg 71%
    03:00 +18°C° 0 mm 2 mps 643 mmHg 71%
    04:00 +18°C° 0 mm 2 mps 643 mmHg 70%
    05:00 +18°C° 0 mm 2 mps 643 mmHg 69%
    06:00 +17°C° 0 mm 2 mps 643 mmHg 69%
    07:00 +20°C° 0 mm 2 mps 644 mmHg 60%
    08:00 +23°C° 0 mm 2 mps 645 mmHg 51%
    09:00 +25°C° 0 mm 2 mps 645 mmHg 42%
    10:00 +27°C° 0 mm 2 mps 645 mmHg 39%
    11:00 +28°C° 0 mm 2 mps 646 mmHg 35%
    12:00 +30°C° 0 mm 3 mps 646 mmHg 31%
    13:00 +30°C° 0 mm 3 mps 646 mmHg 30%
    14:00 +30°C° 0 mm 3 mps 645 mmHg 29%
    15:00 +31°C° 0 mm 3 mps 645 mmHg 28%
    16:00 +30°C° 0 mm 3 mps 645 mmHg 32%
    17:00 +29°C° 0 mm 3 mps 645 mmHg 36%
    18:00 +28°C° 0 mm 3 mps 644 mmHg 39%
    19:00 +26°C° 0 mm 3 mps 644 mmHg 44%
    20:00 +24°C° 0 mm 3 mps 644 mmHg 48%
    21:00 +21°C° 0 mm 3 mps 644 mmHg 52%
    22:00 +20°C° 0 mm 3 mps 644 mmHg 51%
    23:00 +20°C° 0 mm 3 mps 644 mmHg 50%

    20 August, Sunday

    Time Temperature Precipitation Wind Pressure Humidity
    00:00 +19°C° 0 mm 3 mps 644 mmHg 49%
    01:00 +18°C° 0 mm 2 mps 644 mmHg 49%
    02:00 +18°C° 0 mm 2 mps 644 mmHg 50%
    03:00 +18°C° 0 mm 2 mps 644 mmHg 50%
    04:00 +18°C° 0 mm 2 mps 644 mmHg 51%
    05:00 +18°C° 0 mm 2 mps 644 mmHg 51%
    06:00 +18°C° 0 mm 2 mps 644 mmHg 52%
    07:00 +20°C° 0 mm 2 mps 645 mmHg 46%
    08:00 +24°C° 0 mm 2 mps 645 mmHg 39%
    09:00 +26°C° 0 mm 2 mps 646 mmHg 33%
    10:00 +27°C° 0 mm 2 mps 646 mmHg 30%
    11:00 +29°C° 0 mm 2 mps 646 mmHg 28%
    12:00 +30°C° 0 mm 2 mps 646 mmHg 25%
    13:00 +31°C° 0 mm 3 mps 646 mmHg 24%
    14:00 +31°C° 0 mm 3 mps 646 mmHg 24%
    15:00 +31°C° 0 mm 3 mps 645 mmHg 23%
    16:00 +30°C° 0 mm 2 mps 645 mmHg 26%
    17:00 +29°C° 0 mm 2 mps 645 mmHg 30%
    18:00 +28°C° 0 mm 2 mps 644 mmHg 34%
    19:00 +26°C° 0 mm 2 mps 644 mmHg 38%
    20:00 +24°C° 0 mm 3 mps 644 mmHg 42%
    21:00 +21°C° 0 mm 3 mps 644 mmHg 46%
    22:00 +20°C° 0 mm 3 mps 644 mmHg 46%
    23:00 +20°C° 0 mm 3 mps 644 mmHg 46%

    21 August, Monday

    Time Temperature Precipitation Wind Pressure Humidity
    00:00 +19°C° 0 mm 3 mps 644 mmHg 46%
    01:00 +19°C° 0 mm 2 mps 644 mmHg 46%
    02:00 +18°C° 0 mm 2 mps 643 mmHg 46%
    03:00 +18°C° 0 mm 2 mps 643 mmHg 47%
    04:00 +18°C° 0 mm 2 mps 643 mmHg 47%
    05:00 +18°C° 0 mm 2 mps 643 mmHg 48%
    06:00 +18°C° 0 mm 2 mps 644 mmHg 48%
    07:00 +20°C° 0 mm 2 mps 644 mmHg 42%
    08:00 +24°C° 0 mm 2 mps 645 mmHg 36%
    09:00 +27°C° 0 mm 1 mps 645 mmHg 30%
    10:00 +28°C° 0 mm 2 mps 645 mmHg 28%
    11:00 +30°C° 0 mm 2 mps 645 mmHg 25%
    12:00 +31°C° 0 mm 2 mps 645 mmHg 22%
    13:00 +31°C° 0 mm 2 mps 645 mmHg 22%
    14:00 +32°C° 0 mm 2 mps 645 mmHg 21%
    15:00 +32°C° 0 mm 2 mps 644 mmHg 20%
    16:00 +31°C° 0 mm 2 mps 644 mmHg 24%
    17:00 +30°C° 0 mm 2 mps 644 mmHg 29%
    18:00 +28°C° 0 mm 1 mps 643 mmHg 33%
    19:00 +26°C° 0 mm 2 mps 643 mmHg 38%
    20:00 +24°C° 0 mm 2 mps 643 mmHg 43%
    21:00 +21°C° 0 mm 3 mps 643 mmHg 48%
    22:00 +20°C° 0 mm 3 mps 643 mmHg 49%
    23:00 +20°C° 0 mm 2 mps 643 mmHg 51%

    22 August, Tuesday

    Time Temperature Precipitation Wind Pressure Humidity
    00:00 +19°C° 0 mm 2 mps 643 mmHg 52%
    01:00 +19°C° 0 mm 2 mps 643 mmHg 52%
    02:00 +19°C° 0 mm 2 mps 643 mmHg 51%
    03:00 +18°C° 0 mm 2 mps 642 mmHg 51%
    04:00 +19°C° 0 mm 1 mps 642 mmHg 50%
    05:00 +19°C° 0 mm 1 mps 643 mmHg 49%
    06:00 +19°C° 0 mm 1 mps 643 mmHg 48%
    07:00 +22°C° 0 mm 1 mps 643 mmHg 41%
    08:00 +25°C° 0 mm 2 mps 644 mmHg 34%
    09:00 +28°C° 0 mm 2 mps 645 mmHg 26%
    10:00 +30°C° 0 mm 2 mps 645 mmHg 24%
    11:00 +31°C° 0 mm 2 mps 645 mmHg 22%
    12:00 +32°C° 0 mm 2 mps 645 mmHg 21%
    13:00 +34°C° 0 mm 2 mps 644 mmHg 20%
    14:00 +34°C° 0 mm 2 mps 644 mmHg 20%
    15:00 +35°C° 0 mm 2 mps 644 mmHg 20%
    16:00 +32°C° 0 mm 2 mps 643 mmHg 24%
    17:00 +31°C° 0 mm 2 mps 643 mmHg 27%
    18:00 +30°C° 0 mm 2 mps 643 mmHg 31%
    19:00 +28°C° 0 mm 2 mps 643 mmHg 35%
    20:00 +26°C° 0 mm 2 mps 642 mmHg 40%
    21:00 +24°C° 0 mm 3 mps 642 mmHg 44%
    22:00 +22°C° 0 mm 3 mps 642 mmHg 45%
    23:00 +22°C° 0 mm 3 mps 642 mmHg 46%
    Show more